User: anonymous   Login
Location: Unspecified
(0.0000°N, 0.0000°E)
Time: 11:17:19
(UTC+01:00)
Language:

Resurs 1-3 - Orbit

View from above orbital plane
View from above orbital plane
View from above satellite
View from above satellite

Ground track
Ground track

The orbit data is extracted from the following two-line orbital elements,

1 23342U 94074A   18020.74910199 +.00000045 +00000-0 +13210-4 0  9999
2 23342 098.0522 064.6982 0001893 102.6033 257.5390 14.79317138249676
Epoch (UTC): 20 January 2018 17:58:42
Eccentricity: 0.0001893
inclination: 98.0522°
perigee height: 630 km
apogee height: 633 km
right ascension of ascending node: 64.6982°
argument of perigee: 102.6033°
revolutions per day: 14.79317138
mean anomaly at epoch: 257.5390°
orbit number at epoch: 24967

The dashed part of the orbit path shows where the satellite is in the earth's shadow,  

DLR